Regional Weather Roundup
Issued by NWS

Home | Current Version | Previous Version | Graphics & Text | Print | Product List | Glossary On
Versions: 1 2 3 4 5 6 7 8 9 10 11 12 13 14 15 16 17 18 19 20 21 22 23 24 25 26 27 28 29 30 31 32 33 34 35 36 37 38 39 40 41 42 43 44 45 46 47 48 49 50
573
ASUS43 KLSX 191907
RWRMO

WEATHER SUMMARY FOR MISSOURI
NATIONAL WEATHER SERVICE SPRINGFIELD MO
100 PM CST SUN NOV 19 2017

NOTE: "FAIR" INDICATES FEW OR NO CLOUDS BELOW 12,000 FEET WITH NO
       SIGNIFICANT WEATHER AND/OR OBSTRUCTIONS TO VISIBILITY.
       CURRENT SKY AND/OR WEATHER CONDITIONS ARE NOT AVAILABLE FOR
       CHILLICOTHE AND FARMINGTON.

MOZ001>031-035>038-043-044-053-054-192000-
...NORTHERN AND WESTERN MISSOURI...

CITY           SKY/WX    TMP DP  RH WIND       PRES   REMARKS
KANSAS CTY INT SUNNY     48  26  42 SW12      30.19F
KANSAS C DTWN  SUNNY     50  24  36 VRB7      30.20F
LEE`S SUMMIT   SUNNY     47  23  38 SW10      30.22F
ST JOSEPH      SUNNY     49  27  42 SW12      30.18F
CHILLICOTHE      N/A     45  23  42 SW5       30.21F
KIRKSVILLE     SUNNY     41  23  48 SW8       30.19F

$$
MOZ066>068-077>081-088>096-101>105-192000-
...SOUTHWEST MISSOURI...

CITY           SKY/WX    TMP DP  RH WIND       PRES   REMARKS
SPRINGFIELD    SUNNY     48  26  42 N5        30.24F
JOPLIN         SUNNY     49  27  42 CALM      30.27F
BRANSON        SUNNY     48  21  34 NW13G18   30.26F

$$
MOZ032>034-039>042-045>050-055>058-069>072-192000-
...CENTRAL MISSOURI...

CITY           SKY/WX    TMP DP  RH WIND       PRES   REMARKS
COLUMBIA       SUNNY     42  21  43 NW14      30.23F
JEFFERSON CITY SUNNY     42  20  41 NW8       30.25F
ROLLA          SUNNY     42  19  39 NW9       30.23F
SEDALIA        SUNNY     46  25  43 CALM      30.24F
WARRENSBURG    SUNNY     45  23  42 SW6       30.23F
OSAGE BEACH    SUNNY     45  21  38 VRB7      30.25F

$$
MOZ051-052-059>065-192000-
...EAST CENTRAL MISSOURI...

CITY           SKY/WX    TMP DP  RH WIND       PRES   REMARKS
ST LOUIS INTL  MOSUNNY   41  18  39 NW13      30.22F
SPIRIT OF STL  SUNNY     41  21  44 W6        30.22F
ST CHARLES     SUNNY     41  16  36 W15       30.21F

$$
MOZ072>076-082>087-097>100-106>115-192000-
...SOUTH CENTRAL AND SOUTHEAST MISSOURI...

CITY           SKY/WX    TMP DP  RH WIND       PRES   REMARKS
CAPE GIRARDEAU SUNNY     44  21  40 NW10      30.21F
FARMINGTON     SUNNY     42  20  41 NW12G18   30.22S
POPLAR BLUFF   SUNNY     47  17  30 W9        30.21F
WEST PLAINS    SUNNY     50  18  28 N9G18     30.22F

$$



USA.gov is the U.S. government's official web portal to all federal, state and local government web resources and services.